Regional Weather Roundup
Issued by NWS

Home | Current Version | Previous Version | Text Only | Print | Product List | Glossary Off
Versions: 1 2 3 4 5 6 7 8 9 10 11 12 13 14 15 16 17 18 19 20 21 22 23 24 25 26 27 28 29 30 31 32 33 34 35 36 37 38 39 40 41 42 43 44 45 46 47 48 49 50

000
ASUS43 KBIS 200559
RWRND

NORTH DAKOTA REGIONAL WEATHER ROUNDUP
NATIONAL WEATHER SERVICE BISMARCK ND
100 AM CDT SUN APR 20 2014

NOTE: "FAIR" INDICATES FEW OR NO CLOUDS BELOW 12,000 FEET WITH NO
SIGNIFICANT WEATHER AND/OR OBSTRUCTIONS TO VISIBILITY.


NDZ001>003-009>011-017-200700-
NORTHWEST NORTH DAKOTA

CITY           SKY/WX    TMP DP  RH WIND       PRES   REMARKS
WILLISTON      PTCLDY    32  28  85 CALM      29.92R
6HR MIN TEMP:  32; 6HR MAX TEMP:  59;

MINOT          FAIR      36  31  82 SE5       29.95F
$$

NDZ018>021-031>035-040>046-200700-
SOUTHWEST NORTH DAKOTA

CITY           SKY/WX    TMP DP  RH WIND       PRES   REMARKS
BISMARCK       CLEAR     39  32  76 NE5       29.99S
6HR MIN TEMP:  38; 6HR MAX TEMP:  63;

DICKINSON      CLEAR     34  24  67 S6        29.93F
GARRISON         N/A     36  31  82 E6        29.96S
6HR MIN TEMP:  36; 6HR MAX TEMP:  58;

HETTINGER ARPT CLEAR     30  23  75 CALM      29.98S
$$

NDZ004>008-012>016-024-026-027-054-200700-
NORTHEAST NORTH DAKOTA

CITY           SKY/WX    TMP DP  RH WIND       PRES   REMARKS
GRAND FORKS    FAIR      35  31  85 NW5       30.01S
DEVILS LAKE    FAIR      32  27  80 SE6       29.99S
$$

NDZ022-023-025-028>030-036>039-047>053-200700-
SOUTHEAST NORTH DAKOTA

CITY           SKY/WX    TMP DP  RH WIND       PRES   REMARKS
FARGO          FAIR      41  34  76 NE3       30.02R
6HR MIN TEMP:  41; 6HR MAX TEMP:  68;

JAMESTOWN      FAIR      33  31  92 CALM      30.00S
$$




USA.gov is the U.S. government's official web portal to all federal, state and local government web resources and services.